Snowfall_Accumulation
1.0 0.7 0.7 0.6 0.5 0.4 0.5 0.8 1.8 2.3 0.8 0.3 0.2 0.1 0.1 0.1 0.1 0.1 0.1 0.1 0.2 0.1 0.1 0.1 0.1 0.0 0.1 0.1 0.0 0.0 0.0 0.0 0.0 0.0 0.0 0.0 0.0 0.0
0.5 0.7 0.8 0.8 0.8 0.5 0.5 0.7 1.1 1.8 1.8 0.4 0.3 0.1 0.1 0.1 0.1 0.1 0.1 0.1 0.2 0.3 0.1 0.1 0.1 0.1 0.1 0.1 0.1 0.1 0.0 0.0 0.0 0.0 0.0 0.0 0.0 0.0
1.1 0.9 0.8 0.9 1.0 1.0 0.7 0.7 0.9 1.2 1.8 0.7 0.4 0.2 0.1 0.3 0.3 0.1 0.1 0.1 0.1 0.2 0.3 0.1 0.1 0.1 0.1 0.2 0.1 0.1 0.1 0.1 0.1 0.1 0.0 0.0 0.0 0.0
1.2 1.0 1.1 1.2 1.2 1.4 1.1 1.2 1.1 1.1 1.7 1.7 0.9 0.7 0.5 0.4 0.5 0.4 0.2 0.2 0.2 0.2 0.2 0.1 0.1 0.2 0.2 0.2 0.2 0.2 0.2 0.1 0.1 0.1 0.1 0.1 0.1 0.1
1.2 1.4 1.5 1.5 1.8 1.4 1.2 1.4 1.3 1.2 1.6 2.1 1.7 0.9 0.9 0.5 0.8 0.7 0.3 0.2 0.2 0.2 0.2 0.1 0.1 0.1 0.2 0.2 0.2 0.2 0.2 0.1 0.2 0.2 0.2 0.1 0.1 0.1
1.5 1.5 1.7 1.9 2.3 2.0 2.0 2.2 2.5 2.7 2.7 2.7 2.7 2.3 2.0 1.3 1.0 1.2 0.9 0.7 0.5 0.4 0.3 0.2 0.3 0.2 0.2 0.2 0.2 0.2 0.3 0.3 0.3 0.3 0.3 0.3 0.3 0.2
1.5 1.6 1.8 2.1 2.2 2.6 2.6 3.0 3.2 3.4 3.7 4.1 4.0 3.4 2.7 2.3 1.7 1.5 1.7 1.2 1.1 0.8 1.1 0.6 0.5 0.2 0.3 0.3 0.1 0.2 0.3 0.4 0.5 0.5 0.5 0.5 0.5 0.4
2.1 2.2 2.1 2.2 2.3 1.9 2.0 2.1 2.9 5.0 5.9 5.2 4.6 4.0 2.8 2.7 2.2 2.3 2.4 2.6 2.5 1.5 1.6 1.1 0.9 0.6 0.7 0.4 0.2 0.2 0.4 0.6 0.7 0.7 0.8 0.7 0.7 0.8
3.2 3.1 2.9 2.4 2.2 1.8 1.8 1.5 2.2 2.5 3.3 4.0 4.4 3.1 2.6 2.7 3.3 3.8 3.6 3.7 3.3 2.4 1.8 1.9 1.1 1.3 0.8 0.7 0.4 0.3 0.4 0.6 0.8 0.8 0.9 0.9 0.9 0.9
3.2 3.0 2.9 2.4 2.2 2.1 2.4 2.6 1.8 1.6 1.6 2.0 2.5 2.2 2.1 2.4 3.3 4.9 4.5 4.3 2.8 2.0 1.9 2.9 1.9 2.0 1.0 0.8 0.8 0.9 0.8 0.8 0.7 1.0 1.1 0.8 1.1 1.0
2.5 2.2 1.8 1.8 1.8 2.6 3.5 3.3 2.0 1.4 1.1 1.5 1.7 2.1 2.3 2.5 3.0 4.4 5.6 6.8 6.3 2.5 2.3 3.3 2.2 2.2 2.1 1.3 0.9 1.0 1.2 0.7 0.7 0.8 1.1 1.0 1.1 1.3
2.2 2.0 1.7 2.0 2.5 3.6 4.3 4.2 3.6 2.0 1.8 1.3 1.1 1.0 1.3 1.4 1.8 3.0 4.8 7.9 8.1 5.8 2.6 3.6 3.6 4.0 4.6 1.9 1.3 1.0 1.1 0.7 0.4 0.6 0.7 1.1 1.5 1.8
3.2 2.3 1.8 2.0 2.8 3.7 4.3 4.4 4.4 3.8 3.0 2.6 2.2 1.8 1.4 1.3 1.5 1.7 2.6 5.8 9.5 8.0 3.5 6.3 7.6 6.1 8.4 4.8 2.0 1.6 1.4 1.1 0.6 0.6 0.8 1.0 1.5 2.8
4.1 2.4 2.3 3.1 3.5 3.2 3.4 3.4 3.4 3.5 3.8 3.8 3.6 3.0 2.6 2.4 2.0 1.7 2.1 2.6 3.7 4.6 3.3 6.2 11.6 10.1 12.1 9.8 5.6 3.3 2.6 1.8 1.6 1.7 1.5 1.5 1.9 2.6
3.2 3.1 3.3 3.7 3.9 3.4 3.4 3.2 3.1 3.3 4.0 4.4 4.2 3.2 2.4 2.3 2.3 2.5 2.8 2.6 2.3 2.4 2.2 3.0 6.8 8.6 12.3 13.1 8.6 5.1 3.9 2.9 2.3 2.7 3.1 2.6 2.9 3.2
3.4 3.0 3.4 3.4 3.3 3.1 3.4 3.8 3.7 4.2 4.2 4.6 3.7 3.0 2.6 3.1 3.6 3.8 4.4 5.0 5.9 5.2 3.0 2.4 3.8 7.6 11.0 8.9 8.9 7.5 5.1 5.6 4.3 4.5 4.6 3.9 3.7 3.6
5.9 5.3 4.6 4.2 4.4 4.2 4.0 3.8 4.2 4.2 4.8 4.5 4.4 4.8 4.5 4.5 4.4 4.3 5.5 6.9 8.2 6.9 5.6 4.6 5.0 5.3 7.4 8.4 9.8 6.8 5.3 5.0 4.7 5.9 6.6 7.0 4.3 3.6
6.6 7.0 5.7 5.0 4.7 5.0 5.1 5.2 4.8 5.1 5.4 5.8 6.2 6.2 6.6 6.9 6.5 5.8 6.5 8.4 8.8 7.3 6.6 6.0 7.3 9.7 9.1 6.9 5.8 5.8 5.4 5.3 5.1 5.6 7.9 10.4 7.9 4.6
6.8 6.0 5.2 5.0 5.1 5.5 5.7 6.1 6.2 5.9 6.3 7.3 7.9 7.6 8.5 8.7 8.7 8.6 8.2 9.0 9.0 8.0 7.1 6.9 9.6 14.9 16.2 9.9 5.6 4.1 6.4 7.4 6.9 7.0 7.8 9.9 10.8 7.2
5.5 5.6 5.4 5.1 5.6 5.8 6.3 7.0 6.7 6.5 7.2 8.1 8.5 8.6 9.4 10.4 11.0 10.3 9.5 9.9 10.2 9.5 9.4 7.7 9.0 13.7 18.2 14.4 10.4 6.2 4.5 8.3 11.3 12.0 9.0 7.7 7.5 5.3
5.9 5.8 6.0 6.1 6.4 6.9 7.1 7.7 8.1 8.4 8.4 9.1 9.4 9.3 10.4 11.8 11.8 10.2 10.4 10.6 11.6 11.8 10.7 7.7 6.5 8.2 13.0 17.8 16.2 8.7 7.0 6.1 7.5 13.6 15.0 15.3 12.6 9.1
6.0 6.1 6.3 6.7 7.2 7.7 7.8 8.6 8.9 8.6 9.2 9.7 9.7 9.7 10.2 11.6 12.0 11.2 11.4 12.2 11.4 11.0 10.6 8.7 8.0 10.6 14.8 19.0 14.3 8.8 7.8 6.9 5.4 5.7 8.2 14.1 21.6 19.4
7.4 7.3 7.3 7.2 7.6 7.9 8.6 8.9 9.1 8.8 8.8 9.8 9.9 10.2 10.9 12.0 11.3 11.6 11.5 11.7 12.7 12.8 12.6 12.1 10.8 11.4 12.3 12.5 12.9 10.9 8.9 8.0 6.6 6.9 7.2 6.5 7.1 8.1